Location: Chisholm
(54.9102°N, 114.1701°W)
Time: 03:01:08
(UTC+00:00)

ISS - Pass Details

Date: 03 December 2021
Orbit: 413 x 422 km, 51.6° (Epoch: 23 January)

Event Time Altitude Azimuth Distance (km) Brightness Sun altitude
Rises 00:32:10 0° 267° (W) 2,386 1.6 -10.5°
Reaches altitude 10° 00:34:20 10° 261° (W) 1,518 0.5 -10.8°
Maximum altitude 00:37:36 45° 188° (S) 585 -2.8 -11.3°
Enters shadow 00:40:50 10° 114° (ESE) 1,500 -1.4 -11.7°
